FENGYUN 1C DEB

Satellite information

Favourite Embed

Satellite Type and Status

DEBRISIN ORBIT

Key statistics

Satellite FENGYUN 1C DEB at a glance.

Uptime

9496

Days in orbit

Revolutions

≈ 14.4

Per day

Orbit

SSO

Sun Synchronous Orbit

Inclination

98.8

Latest

Satellite identification and parameters

Extended collection of information and parameters for FENGYUN 1C DEB.

Object identification

Identified? True

Debris? True

Object name: FENGYUN 1C DEB

International designator: 1999-025WW

Object number (NORAD): 30237

Object ID (CCSDS): 30237

Country: PEOPLES REPUBLIC OF CHINA (PRC)

Current information (Y/N): Y

RCS size: SMALL

Orbital parameters

Period: 100.166 minutes

Inclination: 98.8214 deg

SMA: 7144.554 km

Apoapsis: 777.601 km

Periapsis: 755.236 km

RAAN: 224.7938 deg

Eccentricy: 0.0015652

Argument of periapsis: 227.84 deg

Mean anomaly: 155.7366 deg

Mean motion: 14.37606765 rev/day

Mean motion (dot): 0.00006011 rev/day2

B* drag term: 0.0020142 1/REarth

Two-line elements (TLE)

Creation date: May 9, 2025, 2:46 a.m.

Reference frame: TEME

Reference center: EARTH

Epoch: May 8, 2025, 6:11 a.m. UTC

TLE line 0: 0 FENGYUN 1C DEB

TLE line 1: 1 30237U 99025WW 25128.25786225 .00006011 00000-0 20142-2 0 9994

TLE line 2: 2 30237 98.8214 224.7938 0015652 227.8400 155.7366 14.37606765945563

Live tracking on map

Real-time ground track for satellite FENGYUN 1C DEB.

In-orbit conjunctions

A list of the most updated potential collisions computed for object FENGYUN 1C DEB.

Target Orbit TCA Probability of collision Miss distance Type
COSMOS 1763 LEO 2025-03-02 19:09:07 0.0002302297 842.0 (m) PAYLOAD
IRIDIUM 33 DEB LEO 2024-11-12 12:46:47 0.0001145069 933.0 (m) DEBRIS
COSMOS 2251 DEB LEO 2024-08-06 14:25:45 0.0007306767 12.0 (m) DEBRIS

Associated space launch

Chinese polar orbiting meteorological satellite

FENGYUN 1C DEB was lifted into orbit during the mission ‘Long March 4B | Feng Yun 1C’, on board a Long March 4B space rocket.

The launch took place on May 10, 1999, 1:33 a.m. from Launch Complex 7.

For more information about the launch, click the button.

Launch to space Long March 4B | Feng Yun 1C
Long March 4B | Feng Yun 1C

Agency: N/A

Status: Launch Successful

Launch date: May 10, 1999, 1:33 a.m. UTC

Rocket: Long March 4B

Launch pad: Launch Complex 7

Location: Taiyuan Satellite Launch Center, People's Republic of China

...

Latest news about this satellite

There are no fresh news available about this satellite. Check back as we update our databases every day.


Newsletter sign-up

Weekly statistics, charts and insights to help you stay on top of the space industry.